RH
102 101 101 102 104 102 100 95 89 80 74 75 74 69 62 60 75 97 103 99 101 101 102 104 108 109 95 88 92 98 102 102 102 101 92 81 74 65 65 69 70 69 65 57 50 50 50 56 76 92 96 97 95 89 78 67 62 61 61 58 55 50 47 48 52 56 62 66 68 70 71 70 69 66 65 62 56 47 40 35 32 27 22 21 20 18 17 16 15 15 15 14 14 14 13 12 12
100 100 101 101 101 103 101 94 90 84 81 87 85 74 64 58 62 83 103 102 99 101 101 102 99 87 74 76 89 99 104 102 100 97 84 70 68 71 75 77 75 68 61 55 50 57 62 65 76 87 94 97 95 84 68 61 61 61 58 55 55 55 56 60 67 75 79 82 85 86 85 82 77 72 69 64 56 48 42 37 32 26 23 23 22 21 19 17 16 16 15 15 15 15 14 13 13
101 100 101 102 101 101 102 97 92 89 90 94 92 85 73 65 63 70 92 105 101 99 101 94 78 66 68 80 92 101 101 95 92 84 68 60 66 75 81 85 86 76 63 56 60 76 86 89 94 98 98 97 89 73 63 63 62 58 58 61 66 73 78 79 85 86 81 81 85 86 85 81 76 72 66 60 54 48 43 38 30 25 24 24 23 22 21 19 18 16 16 16 16 15 14 13 12
100 101 101 101 100 99 101 100 97 95 98 97 94 94 79 68 72 69 77 98 103 97 93 82 69 68 76 82 88 93 91 88 85 71 58 58 66 73 76 80 85 80 71 70 80 94 100 100 101 100 99 97 87 74 69 66 60 60 67 71 72 79 86 89 93 91 86 85 85 83 78 73 71 68 63 56 51 45 41 35 30 27 26 25 24 23 22 21 19 18 17 16 16 15 13 13 12
99 100 101 100 99 97 96 99 100 98 99 95 89 89 79 71 80 79 76 88 96 93 85 78 75 76 75 75 78 82 81 81 77 63 54 55 62 77 86 89 93 94 93 95 100 101 100 100 100 99 99 100 90 78 73 68 66 71 77 80 81 85 91 95 94 92 88 82 77 74 70 69 69 65 59 52 45 39 35 34 32 31 28 27 24 23 22 20 19 18 17 16 15 14 13 12 12
101 100 100 100 99 96 95 98 97 91 87 84 82 83 78 77 83 83 82 83 86 88 85 83 83 82 76 74 74 75 75 72 70 66 64 67 77 91 100 100 93 93 100 103 100 91 84 79 77 81 90 96 88 81 78 77 83 88 91 94 95 95 95 93 86 80 74 70 69 69 70 70 68 62 54 46 39 35 34 34 33 31 29 27 24 21 20 18 17 16 16 15 13 13 12 12 11
97 100 101 101 100 98 95 88 83 78 75 76 78 78 77 80 85 85 87 87 86 88 86 86 88 86 81 77 76 77 79 80 82 86 90 93 96 98 101 102 81 71 85 91 87 74 63 62 68 79 89 93 89 93 92 88 93 98 101 102 101 96 90 84 77 73 70 71 72 71 71 69 63 56 49 42 38 37 36 35 33 31 29 27 23 20 18 16 15 14 14 13 12 12 12 11 11
92 92 94 97 98 97 89 78 73 75 78 83 82 80 83 85 89 91 93 96 97 97 95 95 97 96 92 90 90 92 94 97 99 99 100 101 101 99 101 101 77 59 67 74 74 69 69 77 84 89 93 93 95 105 106 99 98 97 100 105 103 95 87 81 77 75 74 73 72 70 69 63 57 50 45 43 41 40 37 36 34 32 29 26 22 19 16 14 13 12 12 12 10 10 11 11 11
100 94 92 92 95 94 90 87 86 91 94 95 95 92 94 94 94 94 96 99 103 106 103 100 98 98 99 100 100 100 100 98 97 96 98 100 102 101 100 102 86 67 65 70 76 82 85 82 84 93 97 97 101 105 101 93 89 84 87 92 90 84 80 80 79 78 75 71 67 64 61 55 50 47 45 44 42 40 38 37 35 32 28 24 21 18 15 12 11 10 10 10 9 8 9 9 9
104 102 100 100 101 99 98 100 99 101 101 98 99 100 99 95 93 92 94 100 104 107 107 100 93 92 96 100 99 97 94 92 93 97 100 100 101 101 100 103 99 85 74 71 71 76 76 74 86 99 101 100 99 91 81 74 73 71 72 76 79 80 83 84 83 78 71 65 60 56 53 51 49 45 45 45 44 41 38 36 33 29 25 22 19 16 13 11 9 8 8 8 8 7 7 7 8
102 101 101 102 102 101 100 101 101 100 100 99 98 101 98 89 83 82 87 94 96 96 96 89 82 80 81 86 90 90 89 92 97 102 101 100 100 100 100 101 103 97 83 73 68 71 78 87 99 103 103 97 83 72 69 72 75 77 81 87 90 91 88 83 77 70 64 60 58 55 53 51 48 45 45 45 43 40 36 32 29 26 23 19 16 13 11 9 9 8 8 7 7 7 7 6 6
99 100 100 100 99 101 100 99 101 99 100 101 99 100 93 86 81 79 83 85 85 84 81 76 73 74 74 77 84 89 92 96 99 100 100 101 101 100 100 100 100 96 91 87 88 92 96 100 103 102 98 85 72 73 83 90 92 96 98 98 93 85 77 71 68 65 63 62 61 58 55 51 47 45 45 43 40 36 33 29 27 23 20 16 13 11 10 9 10 9 8 8 7 7 7 6 6
103 100 99 100 100 102 99 101 100 94 101 102 97 100 95 92 88 83 85 85 85 82 81 84 87 90 90 91 95 97 97 99 100 100 106 105 101 101 100 100 100 97 97 100 102 102 101 101 102 100 91 83 84 92 99 102 101 98 94 86 78 71 68 67 68 68 67 65 63 59 54 50 47 45 43 40 37 34 30 27 24 19 15 13 11 11 11 10 10 9 9 8 8 8 7 7 6
97 100 101 100 101 101 99 103 99 90 100 104 99 101 100 100 96 94 95 94 93 88 91 99 100 103 103 102 102 101 99 101 100 100 110 108 99 100 100 99 100 100 101 104 102 97 99 102 102 98 94 96 100 101 100 98 93 86 79 72 69 68 69 70 71 70 67 65 63 57 52 48 47 45 42 39 36 32 28 24 19 15 13 12 12 12 11 10 9 8 8 8 8 8 7 7 7
81 85 93 100 103 100 100 101 97 96 102 104 102 100 100 101 98 100 101 99 98 92 97 102 100 103 104 106 106 102 99 100 100 100 110 107 90 90 99 100 100 102 104 104 99 95 99 102 102 100 100 102 101 97 91 83 77 72 69 67 69 71 72 73 73 70 66 63 59 54 51 49 47 44 41 38 33 28 23 18 15 13 13 13 12 11 10 9 9 8 8 8 8 8 8 8 7
89 80 77 90 102 100 100 101 98 100 102 102 102 99 99 101 99 100 101 101 99 94 98 100 100 102 103 108 108 102 101 100 100 104 109 101 84 83 96 101 101 102 102 101 100 100 102 102 102 102 100 98 94 86 77 71 70 70 71 73 76 77 76 75 71 67 64 59 56 54 53 51 48 45 40 34 27 21 17 16 15 15 14 13 12 10 9 9 9 9 9 9 9 9 8 8 8
102 97 78 71 87 97 100 102 100 100 101 101 103 101 100 98 99 100 100 102 100 98 100 99 100 100 99 103 103 101 102 101 100 105 108 101 92 94 99 100 100 100 100 100 101 101 102 102 100 96 91 87 82 77 74 75 78 80 83 83 81 78 75 72 67 63 61 59 58 56 55 53 49 44 36 28 21 18 18 18 17 17 15 13 12 10 10 10 10 10 11 11 11 11 11 10 9
100 107 96 75 69 77 89 99 102 101 99 101 102 100 100 97 98 100 101 103 100 99 99 99 101 100 100 100 100 100 100 101 100 103 107 102 97 97 96 97 99 100 100 101 100 99 99 97 91 86 82 80 79 78 81 85 88 88 88 84 78 73 70 67 63 61 61 63 63 60 58 55 47 38 29 24 22 22 22 21 19 16 14 13 13 12 12 11 11 12 13 13 14 14 14 12 11
98 102 104 98 80 66 68 82 98 106 101 100 103 100 99 99 99 100 100 102 102 100 97 96 96 95 97 97 98 101 100 100 100 101 104 102 102 102 100 100 100 100 100 96 92 90 87 84 82 82 83 85 86 86 88 90 89 86 82 76 70 67 66 64 63 63 65 67 67 64 61 53 41 31 27 27 26 25 23 21 18 16 15 14 14 14 13 13 13 14 15 16 16 16 16 15 14
96 99 99 101 99 89 72 65 79 100 104 100 100 99 101 102 100 101 101 100 100 102 99 95 94 92 93 93 96 99 99 100 100 100 101 101 103 104 102 99 98 97 95 91 87 85 84 86 88 90 92 93 92 90 90 88 84 79 73 69 65 66 69 69 68 68 69 69 68 65 58 46 35 31 32 32 29 25 21 20 19 18 18 18 18 17 16 15 15 16 17 18 19 19 17 17 17
97 99 99 96 98 103 96 81 71 77 92 102 103 100 100 102 100 102 104 101 100 103 102 99 100 99 98 98 99 100 100 100 100 100 101 101 101 102 102 99 98 97 96 96 95 95 94 94 95 94 93 91 89 87 86 82 77 71 67 66 68 73 76 75 72 71 70 70 69 61 48 39 35 36 36 33 29 25 23 22 23 23 22 22 21 20 19 19 19 20 20 21 21 21 19 19 19
100 97 96 96 98 100 102 101 86 69 71 83 95 101 101 102 101 103 105 102 102 103 101 100 101 101 101 101 100 100 100 100 100 100 101 101 101 102 104 103 101 99 100 99 98 96 94 91 88 85 83 83 84 84 82 76 70 67 67 69 74 78 78 76 73 72 72 71 65 52 41 39 39 40 36 31 28 28 29 29 29 30 29 27 25 23 21 21 21 23 24 25 25 24 22 20 20
97 99 97 98 102 101 99 102 100 88 77 72 74 81 86 91 94 96 101 103 103 103 102 103 103 102 101 101 100 101 102 102 101 100 101 101 101 103 104 102 99 98 96 94 93 91 88 84 80 80 82 85 85 83 78 72 67 67 70 74 77 77 77 77 76 76 75 68 55 46 42 44 44 41 35 31 30 32 34 34 35 36 35 35 33 31 28 25 23 23 24 25 27 28 27 24 21
98 101 101 102 103 98 95 98 103 102 96 91 83 77 76 77 77 79 87 97 99 100 102 103 103 103 103 102 103 104 104 104 103 101 101 101 102 102 101 98 96 94 92 91 90 87 84 82 83 87 89 88 85 80 75 71 71 73 76 79 80 81 81 82 82 79 71 60 50 48 49 50 47 42 37 36 36 36 37 37 37 36 36 37 38 39 37 33 29 26 25 25 25 28 29 29 26
100 101 100 102 103 95 89 90 97 100 99 101 99 95 90 84 81 80 84 89 91 93 95 97 100 100 101 102 103 105 104 103 103 102 101 102 102 99 96 94 93 92 91 90 87 83 83 86 91 92 90 86 81 77 75 75 77 79 81 84 85 87 87 85 80 72 62 56 54 55 55 52 47 42 41 41 41 41 40 40 39 38 37 37 39 41 41 39 35 31 28 26 25 26 27 29 30
99 101 101 100 101 98 93 88 89 95 98 99 100 101 101 98 95 95 94 94 94 93 92 94 97 97 99 100 100 102 101 100 102 102 102 101 99 95 94 94 94 92 88 84 81 82 87 91 91 87 83 79 76 76 78 80 82 86 88 90 90 88 84 77 69 63 60 60 61 61 57 51 47 45 45 44 44 43 43 43 43 43 43 43 45 44 44 42 39 36 32 29 26 26 26 27 28
100 99 99 100 101 100 98 95 91 90 93 95 97 98 99 100 100 100 99 98 98 98 98 98 99 99 100 100 100 100 100 100 101 102 102 101 98 97 96 95 91 84 79 78 81 87 88 86 82 79 76 75 76 81 84 86 88 91 91 88 83 78 72 67 65 65 65 65 64 61 55 51 49 50 50 49 48 47 47 48 48 49 50 51 50 48 47 45 42 38 35 32 29 27 25 25 25
100 103 101 100 99 99 99 100 97 95 95 97 97 97 97 100 102 101 99 98 99 99 100 99 100 100 100 101 101 101 101 100 101 104 104 101 98 97 93 87 81 77 79 84 87 86 82 79 78 77 77 79 83 87 89 89 88 85 80 75 72 70 69 69 70 69 68 66 62 58 56 55 56 57 58 56 54 53 54 55 55 55 56 55 53 50 48 45 43 40 36 33 31 29 27 24 23
84 93 98 101 101 101 100 100 100 97 99 100 98 97 99 101 103 103 100 100 100 99 100 99 99 100 100 100 99 100 101 102 105 106 103 99 95 89 83 78 77 83 88 90 86 82 80 78 79 80 83 85 86 86 84 80 76 72 70 71 73 75 75 74 73 71 67 64 60 60 61 61 62 63 62 59 57 58 59 60 62 61 60 58 56 53 50 45 41 39 36 34 31 30 29 26 23
63 70 77 84 91 96 97 100 101 101 102 101 99 101 102 103 104 104 103 101 100 100 99 98 99 98 98 99 99 100 102 104 105 103 98 93 86 79 77 81 87 92 91 87 83 80 79 79 82 84 85 83 80 76 72 69 69 70 74 77 79 78 77 75 71 67 64 63 64 66 67 68 68 66 63 61 60 61 63 65 66 65 63 60 57 54 52 47 42 38 34 33 30 28 27 26 24
45 52 58 63 69 77 83 86 87 90 95 94 95 98 100 103 103 100 97 96 98 101 100 100 101 100 100 101 101 102 104 105 103 97 89 81 78 80 87 93 95 92 86 82 80 79 80 81 82 80 77 73 69 66 66 68 71 74 76 77 77 75 72 68 64 62 62 65 68 70 70 70 69 67 65 65 66 68 69 69 68 67 64 61 58 55 52 49 45 40 34 31 29 26 24 23 22
28 33 40 44 47 54 62 67 66 68 71 70 69 70 73 83 88 88 87 89 94 99 100 101 103 103 103 105 105 105 103 97 90 82 78 79 86 94 96 94 88 82 79 77 76 77 78 77 75 71 68 66 65 66 68 70 72 73 75 74 72 68 63 60 59 61 63 66 69 71 71 70 69 68 68 69 72 73 73 73 71 69 66 63 60 56 53 51 47 42 35 29 27 24 22 19 18
25 25 27 28 30 33 40 46 46 45 44 40 39 38 46 58 67 75 83 88 92 97 100 102 104 105 104 102 97 91 83 77 74 76 83 90 94 92 86 80 76 74 73 73 74 74 73 71 70 68 67 67 68 69 70 71 74 74 72 68 63 59 58 58 59 62 65 67 70 72 72 71 72 72 73 74 76 75 74 74 73 71 69 65 61 56 52 47 43 38 32 25 22 20 18 16 14
27 26 27 26 26 26 28 31 33 32 30 29 27 28 35 43 46 56 68 76 83 88 91 92 91 87 82 76 69 64 63 66 73 80 83 82 78 74 72 70 70 71 71 73 74 75 76 74 71 70 69 70 71 72 74 75 74 70 65 60 59 60 61 62 62 63 67 70 73 75 77 78 78 79 80 79 79 78 77 75 73 70 65 59 53 48 43 38 33 30 27 22 18 16 15 14 13
26 26 27 26 25 26 27 29 31 31 30 29 29 29 32 34 35 39 45 50 55 58 59 59 57 56 53 52 52 55 60 65 69 70 69 68 67 68 68 68 69 72 75 79 82 81 79 75 72 71 72 74 76 76 75 72 67 63 61 62 64 64 63 64 66 69 73 76 79 81 83 84 85 85 84 83 82 80 77 72 67 61 55 48 41 36 32 29 27 24 23 22 19 17 16 15 13
25 25 26 28 27 26 26 30 32 32 31 29 29 31 33 33 34 35 36 37 39 41 42 43 44 46 48 50 54 57 60 62 63 63 64 65 66 66 68 73 78 82 86 86 84 80 78 77 77 77 77 77 75 72 69 67 66 65 65 65 64 62 63 69 75 79 82 85 87 87 85 84 83 83 80 78 74 69 63 56 50 45 41 37 33 29 26 25 24 23 23 22 21 20 18 17 15
28 27 27 29 30 28 28 29 31 32 33 32 32 35 36 36 37 37 38 39 41 43 44 46 47 49 52 55 58 60 62 62 63 63 65 67 70 75 81 87 90 91 89 86 83 82 81 81 80 77 74 71 68 67 65 64 65 64 63 62 62 66 71 77 81 84 85 86 86 85 83 79 74 70 64 59 55 49 43 38 35 32 30 29 28 27 26 25 24 23 22 21 20 19 18 17 15
31 30 30 30 30 30 32 34 35 35 35 35 38 40 41 42 43 42 43 45 46 48 50 51 53 55 56 58 59 60 62 63 66 70 75 81 87 92 94 95 94 92 89 87 85 83 81 78 74 69 66 66 67 65 63 60 61 63 65 68 72 75 78 79 79 78 77 75 73 72 71 67 62 55 47 41 38 35 33 31 29 28 27 27 26 25 24 23 22 22 20 19 18 17 16 15 13
32 32 32 32 33 34 37 39 41 41 38 38 41 42 44 46 46 47 48 49 50 52 53 55 56 57 59 61 64 68 73 77 82 88 92 96 98 97 97 95 93 91 88 85 81 77 74 70 67 66 66 66 65 65 65 65 67 70 72 74 75 75 73 71 68 64 61 58 56 53 52 51 48 44 38 33 31 30 29 29 28 27 26 25 24 23 21 19 19 18 17 16 15 14 14 12 11
36 36 36 37 36 37 40 41 41 42 41 41 43 42 43 45 46 48 47 48 51 54 56 60 64 68 73 78 82 86 91 94 96 98 99 99 98 96 94 91 88 85 82 79 75 72 70 68 69 70 67 65 66 70 75 74 73 72 69 66 63 61 59 56 53 49 44 42 40 38 37 36 37 37 36 34 32 30 27 25 24 23 21 20 19 18 17 16 15 14 13 13 12 12 12 11 10
37 37 38 37 37 39 39 38 39 39 39 40 40 40 42 43 45 47 50 55 62 67 72 79 85 89 92 95 97 98 99 100 101 101 99 96 94 91 88 86 83 81 78 75 73 73 72 72 71 69 67 68 72 76 75 70 66 62 57 53 49 45 43 40 38 35 33 32 31 30 29 29 30 31 33 33 33 32 29 26 23 20 19 17 16 14 13 12 11 11 11 11 11 12 12 13 12
36 36 40 38 34 37 39 38 39 39 39 40 40 40 44 49 54 60 68 76 83 89 95 99 101 101 101 102 103 103 102 101 99 97 94 92 90 88 86 82 80 78 76 73 73 74 72 70 69 69 72 74 74 70 64 58 53 49 45 42 39 36 34 31 30 29 29 29 28 28 28 27 25 25 25 25 26 26 26 24 21 18 16 14 14 14 14 13 13 13 12 12 12 11 11 12 12
48 50 58 57 46 46 52 53 52 53 55 58 61 63 63 67 78 87 94 99 101 103 106 106 106 106 105 105 104 102 100 97 95 92 91 91 89 86 82 79 78 76 73 70 71 71 71 71 71 71 70 67 61 56 50 45 41 39 36 34 32 31 30 29 29 28 28 28 28 27 27 25 23 21 20 18 18 18 18 18 17 16 16 16 16 16 16 15 14 13 12 11 10 9 9 8 8
72 71 76 79 71 67 71 72 73 73 73 80 89 93 90 89 96 103 104 105 107 108 108 107 106 104 101 100 98 96 96 94 91 90 89 87 84 80 77 74 74 73 71 68 69 70 70 69 65 60 56 51 46 42 38 36 34 33 31 30 30 29 29 29 28 28 27 27 26 25 24 22 20 18 16 14 13 13 14 15 16 16 17 17 16 15 13 12 11 10 9 9 8 8 8 7 7
84 82 82 85 84 81 80 81 83 79 77 87 94 93 92 88 88 95 98 99 103 103 103 102 100 99 98 97 96 96 94 90 86 85 83 81 78 75 72 70 71 72 71 68 67 65 61 58 53 48 44 40 37 35 34 33 32 31 30 30 29 28 28 28 27 27 26 25 24 22 21 19 17 16 15 14 13 13 13 14 14 13 12 12 11 10 10 9 9 9 8 8 8 8 8 8 7
81 81 83 84 83 83 81 81 83 79 77 87 89 82 81 78 76 86 92 95 100 99 96 95 95 96 96 95 93 91 87 83 80 78 75 73 70 68 68 68 69 68 64 58 55 52 49 46 43 40 38 36 34 33 33 32 31 30 29 28 28 27 27 26 25 24 22 21 20 18 17 17 17 17 17 16 14 12 10 10 10 9 8 8 8 8 9 9 9 9 9 8 8 8 7 7 7
78 78 81 81 81 81 81 81 81 81 81 88 89 81 79 77 78 89 96 99 101 99 97 96 96 96 94 91 89 86 82 77 73 70 68 68 67 66 66 63 60 57 53 49 45 42 40 39 37 36 35 33 33 32 31 31 30 29 28 27 27 26 25 24 22 21 19 18 18 18 18 18 19 18 17 15 12 10 8 7 8 7 8 8 8 8 9 9 9 8 8 8 7 7 7 7 7
74 75 75 78 79 79 81 82 82 84 85 89 93 90 87 85 85 95 103 104 101 98 97 95 94 93 89 87 85 81 76 71 68 67 66 65 62 59 56 52 49 47 45 42 40 38 36 35 34 34 33 32 31 30 30 30 29 29 28 27 25 24 23 21 20 19 18 19 19 19 19 17 16 14 12 10 9 8 8 7 7 7 8 8 8 8 8 8 8 8 7 7 7 6 6 6 6
62 64 65 69 72 73 76 79 81 83 82 85 91 90 89 86 87 94 98 97 95 96 94 89 87 86 84 82 80 75 70 65 62 61 58 53 49 46 44 42 41 40 39 37 36 35 34 33 32 32 31 30 30 29 29 29 28 27 25 24 22 21 19 19 19 19 19 19 19 17 15 13 11 10 9 9 8 8 8 8 8 7 7 7 7 7 7 8 7 8 7 7 7 6 6 7 6
48 51 53 58 61 61 65 69 71 72 73 76 79 78 76 75 78 82 82 81 84 85 81 76 74 73 71 69 65 60 54 50 49 47 45 42 40 39 39 37 36 35 35 34 33 33 32 32 31 30 30 29 28 28 27 26 25 23 21 20 19 19 19 20 20 19 18 16 14 12 10 10 9 9 9 9 9 9 9 9 8 8 7 7 7 7 7 7 7 7 8 7 7 7 7 7 7
36 38 40 45 46 46 48 50 52 52 53 55 58 59 58 57 57 59 59 58 58 58 56 53 52 51 50 48 46 43 41 40 40 40 39 38 37 36 35 34 34 33 32 31 31 31 30 30 29 29 28 27 26 25 23 22 21 19 19 19 20 20 20 19 17 15 13 11 10 9 9 9 9 9 9 9 9 9 9 8 8 8 8 7 7 7 7 7 7 7 7 7 7 7 7 7 7
30 31 32 34 35 34 34 36 37 37 35 35 38 41 41 40 40 42 43 41 39 39 39 39 40 40 40 40 39 38 37 37 37 36 35 35 34 34 33 32 31 30 30 30 29 29 28 28 27 26 25 24 22 21 20 19 19 19 20 20 19 18 16 14 12 11 10 9 9 9 9 9 9 9 9 9 9 9 8 8 8 8 8 8 7 7 7 7 7 6 7 7 7 7 7 7 7
27 28 29 30 30 30 31 32 32 33 33 32 32 34 34 35 35 35 37 36 33 33 33 34 36 37 37 37 36 35 34 34 34 33 33 32 31 31 30 29 28 28 28 27 27 27 27 26 25 23 22 20 19 19 19 19 20 19 18 16 14 13 11 10 9 9 9 9 9 9 9 9 9 9 9 9 9 8 8 8 8 8 8 7 7 7 7 6 7 7 6 7 7 7 6 6 6
25 26 27 27 28 29 29 29 30 30 31 30 29 30 31 34 34 34 34 33 29 28 29 30 33 33 33 33 33 33 32 31 31 30 29 29 29 29 28 28 27 27 26 26 26 25 24 23 22 20 19 19 20 20 20 19 17 15 13 12 11 10 10 10 9 10 9 9 9 9 9 8 8 8 8 8 8 8 8 8 8 8 8 8 8 7 7 7 6 6 6 6 6 6 6 5 5
25 25 26 27 28 28 27 28 29 28 28 28 28 28 29 31 34 35 35 32 29 28 28 30 31 31 31 31 31 29 28 29 29 28 28 28 28 28 28 27 26 26 25 24 23 22 21 20 20 21 21 21 21 20 18 15 13 12 11 10 10 9 10 10 10 10 9 9 9 9 9 8 8 9 8 9 9 8 8 8 8 8 8 8 8 8 8 7 6 6 5 6 6 5 5 5 4
23 24 25 25 26 26 26 27 27 27 26 27 27 27 28 30 31 33 33 30 28 28 28 29 29 29 29 29 28 27 26 27 27 26 26 26 27 26 26 26 25 24 22 21 21 21 22 23 24 24 23 20 18 15 14 12 11 11 10 10 10 10 10 10 10 10 9 9 9 9 9 9 9 9 9 9 9 8 8 8 8 8 8 8 8 8 8 7 6 6 5 5 5 5 4 4 4
19 20 21 22 22 23 23 23 24 24 24 23 23 23 24 25 25 26 27 26 26 26 26 26 26 26 26 25 25 23 24 25 24 25 25 25 25 24 23 23 22 22 22 23 25 26 27 26 24 22 18 16 14 12 12 11 11 11 10 11 10 10 10 10 10 10 10 10 10 10 10 10 9 9 9 9 8 8 9 9 9 8 8 9 8 8 7 7 6 6 5 4 4 4 3 3 3
16 16 17 18 18 18 18 19 19 19 19 19 19 18 19 21 21 20 20 21 22 21 22 22 22 23 23 23 23 23 23 24 23 24 23 23 22 21 21 22 23 25 26 27 27 26 23 20 18 16 14 12 12 11 12 11 11 11 11 11 10 10 10 10 10 10 10 10 10 10 10 10 10 9 9 9 9 9 9 9 9 8 8 8 7 7 7 6 6 5 5 4 3 3 3 3 3
Wind_Speed
70 68 68 69 71 73 74 75 74 72 71 71 70 68 65 65 67 65 64 64 67 70 72 74 73 72 71 71 70 69 67 67 66 64 63 64 65 65 65 65 66 66 65 64 65 66 66 66 67 68 69 70 71 72 73 75 75 75 75 76 77 76 74 73 73 73 74 74 75 76 77 78 79 80 81 82 83 83 81 79 76 72 69 67 66 66 66 67 68 69 70 70 70 71 72 72 73
67 67 69 71 72 73 75 76 74 73 71 71 71 69 65 67 68 65 66 66 68 71 72 73 72 72 71 70 69 68 67 67 67 66 65 64 65 66 67 67 68 68 68 67 68 68 68 69 70 70 71 71 72 73 75 76 76 76 77 79 78 76 75 75 75 76 77 77 78 79 80 81 82 84 85 87 87 86 83 81 77 72 68 67 67 67 67 67 68 69 69 69 70 71 72 72 73
68 68 70 73 75 76 77 77 76 74 73 73 72 70 67 69 66 64 67 68 69 70 71 71 71 71 69 68 66 66 66 65 66 66 66 65 65 66 67 68 69 70 70 70 72 72 72 72 72 71 72 72 74 76 77 77 78 79 79 79 78 77 77 77 78 78 79 80 81 82 83 84 86 88 89 90 89 87 85 81 76 71 68 68 68 68 68 68 68 69 69 69 70 72 72 73 73
70 71 73 75 77 78 79 79 78 77 76 76 74 72 70 68 65 64 67 69 70 71 71 71 70 69 67 66 66 66 65 65 65 65 65 66 66 66 67 68 69 71 72 72 73 72 71 71 71 71 72 74 76 77 77 78 81 80 79 78 78 79 79 80 80 80 81 82 83 85 87 88 90 91 92 92 90 88 84 80 74 71 69 69 68 68 68 68 68 68 69 70 72 73 73 74 74
68 69 73 76 78 80 80 80 80 80 79 78 75 73 71 68 66 65 65 68 70 70 70 70 68 67 66 66 66 66 65 65 65 66 66 66 67 68 67 67 67 68 69 69 69 69 69 70 71 73 75 76 77 77 79 82 82 81 79 79 80 80 80 81 81 82 84 86 88 89 91 92 93 94 94 93 90 86 81 77 73 71 70 69 69 68 68 68 68 68 70 73 74 74 74 74 74
69 68 69 72 76 79 80 80 82 82 80 78 75 73 71 68 68 67 65 66 67 68 68 68 67 67 67 65 65 65 65 65 66 67 68 69 70 72 71 70 70 70 70 70 70 71 72 74 76 78 79 78 78 79 81 83 82 81 81 80 81 82 83 84 86 88 89 90 91 92 93 94 95 95 94 91 87 82 78 74 72 71 70 70 70 68 68 68 68 69 71 74 74 73 73 73 74
75 73 70 69 71 74 77 79 81 80 78 77 75 73 71 69 68 68 67 66 66 67 67 67 67 67 66 66 66 67 67 68 69 70 71 72 73 75 76 76 75 74 75 75 75 76 77 79 80 80 80 79 79 81 83 83 82 82 83 84 86 87 89 90 91 91 92 93 94 95 96 97 96 95 91 87 82 78 75 73 72 72 71 71 71 70 69 69 69 70 72 74 74 72 71 73 74
80 78 76 75 73 74 76 77 77 76 75 75 74 71 70 69 68 68 68 67 67 68 67 66 66 66 66 67 68 69 70 70 71 73 74 75 75 76 78 79 79 78 77 78 79 79 80 80 80 80 79 79 81 81 83 84 85 86 88 89 91 92 92 93 93 93 94 96 97 98 98 97 95 92 88 83 79 76 75 74 74 74 73 73 73 73 71 70 69 70 71 74 74 71 70 71 72
82 81 80 79 77 77 78 77 77 77 76 76 74 73 72 72 71 69 68 67 68 70 69 69 69 69 69 69 70 71 72 73 74 75 76 77 77 77 78 80 81 80 79 79 79 80 80 80 81 81 80 80 82 83 85 87 90 91 91 92 93 93 94 94 95 96 97 99 99 98 97 96 94 89 86 82 79 77 76 75 76 76 75 75 74 74 72 71 70 70 71 72 74 72 71 70 70
81 81 80 79 77 77 76 76 78 77 75 75 74 73 74 76 75 73 71 69 71 72 72 73 74 74 74 74 74 74 74 75 75 76 77 78 78 78 79 79 80 81 80 80 81 82 83 84 83 81 81 82 84 87 90 92 93 94 93 94 94 94 95 96 98 99 101 101 99 98 97 95 91 87 84 82 80 79 78 78 78 77 77 76 75 74 72 71 71 71 71 70 72 72 72 71 71
79 80 79 78 77 75 73 72 74 71 69 70 71 71 74 77 77 75 72 72 74 75 75 76 76 76 75 75 75 75 75 76 77 78 78 78 78 79 80 81 82 83 83 84 84 85 85 84 82 81 83 85 88 92 95 95 94 94 94 94 94 95 97 99 101 101 101 100 99 98 97 93 89 86 84 83 82 81 80 80 79 78 77 76 74 73 72 71 70 71 71 70 70 71 72 72 72
79 79 78 78 76 75 74 72 71 67 66 69 70 73 77 78 79 77 74 75 76 76 77 76 75 75 75 75 75 76 77 77 77 77 78 78 80 81 83 84 85 85 85 85 84 83 83 82 82 84 87 90 93 95 95 93 93 93 94 95 97 100 101 102 101 101 100 100 100 98 95 90 88 86 84 83 83 82 81 80 79 78 76 74 73 71 70 69 69 69 70 70 69 69 71 72 72
80 81 80 80 78 76 75 72 72 69 65 66 67 70 72 74 77 76 75 76 77 76 75 74 73 73 74 75 76 77 77 77 77 77 79 80 81 82 83 83 83 82 81 81 82 82 83 84 86 88 91 94 95 93 92 92 93 95 98 100 102 103 102 101 100 101 101 100 99 96 92 89 87 85 84 84 83 83 82 80 79 77 75 73 71 70 69 68 68 68 69 69 69 69 69 71 72
79 81 81 82 81 80 76 73 75 72 65 62 65 67 65 69 72 72 72 74 75 74 74 73 73 74 74 76 77 78 79 79 80 80 81 81 82 82 82 81 81 81 81 83 85 87 88 89 91 93 94 94 93 92 94 96 98 101 104 105 104 103 102 101 102 101 100 98 96 93 91 88 87 85 84 84 83 83 81 80 78 76 74 72 70 69 68 67 67 67 68 68 68 68 68 70 71
76 77 80 82 83 82 80 79 78 73 68 65 68 70 67 68 70 71 73 74 74 74 74 74 74 75 76 78 79 80 81 82 83 83 84 84 85 85 85 85 86 86 88 89 90 91 92 93 94 94 93 93 95 97 100 102 104 105 105 104 103 103 103 103 101 100 98 95 93 92 90 89 87 86 85 84 83 82 81 79 77 75 73 71 69 67 66 66 66 66 66 67 67 68 68 68 70
73 73 74 78 82 83 82 83 82 78 74 72 73 71 67 67 67 69 70 71 72 71 72 73 74 75 77 79 80 81 83 84 85 86 86 87 88 88 88 89 89 90 90 91 91 92 92 93 94 94 96 98 101 103 105 105 105 104 104 104 104 104 103 102 99 97 95 94 93 92 90 89 88 87 86 85 84 82 80 78 76 74 72 70 68 66 65 64 64 65 65 66 66 67 68 68 69
70 70 71 73 78 82 83 83 83 83 81 79 78 75 72 71 69 68 68 69 69 69 70 71 72 73 74 76 78 80 81 82 83 84 85 86 87 87 88 89 90 90 91 91 92 92 93 95 97 100 102 105 106 107 106 105 105 104 104 104 104 103 101 99 97 95 94 94 93 92 91 90 89 88 87 86 85 82 80 77 75 73 71 69 67 66 65 64 63 64 64 65 65 66 67 67 68
72 69 71 72 75 79 81 83 82 85 86 84 83 83 83 81 78 75 73 72 72 72 71 70 71 72 72 74 75 77 78 79 81 83 84 85 87 88 90 91 92 93 93 94 95 97 99 101 103 105 106 107 107 107 106 105 105 104 103 103 101 100 98 97 96 95 94 94 94 93 92 91 90 89 87 86 85 82 79 77 75 73 71 69 68 67 65 64 64 63 64 64 65 65 66 67 67
79 72 69 71 75 74 76 80 82 85 87 86 88 88 89 89 87 85 82 81 81 80 78 77 77 76 77 77 78 79 80 81 83 85 86 88 89 91 93 94 95 96 98 100 101 102 104 105 106 107 107 107 107 106 105 104 103 102 101 100 99 98 97 96 96 96 95 94 94 93 92 92 90 89 87 86 84 82 79 77 75 74 72 70 69 68 66 65 64 63 64 64 64 65 66 66 67
83 77 72 71 71 71 74 77 80 85 86 85 89 90 90 91 90 89 88 88 88 87 88 87 87 86 86 86 86 86 87 88 88 89 90 91 92 94 96 97 99 101 102 104 104 105 106 106 106 106 106 106 106 105 104 102 101 101 100 99 98 98 97 97 97 96 96 95 94 93 92 91 90 89 87 85 84 82 80 78 77 75 74 72 71 70 68 67 65 64 64 64 64 65 66 66 67
87 83 80 75 70 71 75 77 80 85 84 83 86 88 89 91 91 90 90 90 90 90 91 91 91 91 91 91 91 91 92 93 93 94 94 95 96 97 98 100 101 102 103 104 104 105 105 105 106 106 105 105 104 103 102 101 100 99 99 99 98 97 96 97 97 97 96 95 95 94 93 91 90 88 87 85 84 83 82 80 78 77 76 74 73 72 70 69 67 66 66 65 65 66 66 67 68
89 87 86 81 77 75 75 79 83 84 83 83 86 88 89 91 91 91 92 92 92 92 92 92 93 93 93 93 93 94 95 96 96 97 97 97 98 99 99 100 101 102 103 103 104 104 105 106 106 105 104 103 102 101 100 100 100 99 99 99 98 97 96 97 97 97 96 96 95 94 93 92 90 88 87 86 85 84 83 82 80 79 78 77 76 75 73 71 69 68 67 67 66 67 67 68 68
88 89 90 87 85 82 78 81 83 82 82 83 87 90 92 93 93 94 95 94 95 96 96 96 97 97 97 97 97 98 98 99 99 99 99 100 100 100 101 102 102 103 104 104 104 104 104 104 103 102 101 100 100 100 100 100 100 100 100 98 97 97 96 96 96 97 97 96 96 95 94 92 91 90 88 87 86 85 84 83 82 81 80 79 79 78 77 75 73 71 70 69 68 69 69 70 70
87 90 92 92 92 90 85 85 85 83 81 81 84 88 90 93 94 95 95 95 98 99 99 100 99 100 100 100 101 101 102 102 102 102 102 102 102 103 103 104 104 105 104 104 103 102 102 101 100 100 99 99 99 99 100 101 101 100 99 98 97 96 96 96 96 97 97 97 96 95 94 93 92 91 90 89 88 87 85 84 83 82 81 80 80 80 79 79 77 76 74 72 71 70 71 71 72
87 90 91 93 96 96 94 92 90 88 86 83 84 85 88 91 93 94 95 96 97 98 99 99 99 99 100 100 101 102 102 102 103 103 103 104 104 105 105 105 104 103 102 101 101 101 100 99 99 98 98 99 99 100 101 101 100 99 98 97 97 97 97 97 97 97 97 97 96 96 95 94 93 92 91 90 89 89 88 86 85 84 84 82 82 81 81 81 80 80 78 77 75 74 73 73 73
91 92 92 92 94 96 97 97 96 95 93 91 89 89 89 90 92 94 96 98 98 99 99 99 99 99 100 100 101 101 102 102 103 104 104 105 105 105 104 103 102 102 101 101 100 100 99 98 98 98 99 99 100 100 100 100 99 98 98 97 97 97 98 98 98 97 97 97 97 96 96 96 95 94 92 92 91 90 89 88 87 86 86 85 84 84 83 83 83 82 82 81 79 78 77 76 75
96 96 95 94 95 95 96 97 98 98 98 97 97 97 96 95 95 96 99 100 100 100 100 101 101 101 102 102 103 103 103 104 104 105 105 105 104 103 102 102 102 102 102 101 99 98 98 98 99 99 100 100 100 99 99 99 98 98 98 98 98 98 98 98 98 98 98 98 98 97 97 97 96 95 94 93 92 91 90 90 89 88 88 87 87 86 86 86 86 85 85 84 83 82 81 80 79
97 100 100 99 99 99 99 99 99 100 100 100 101 102 101 100 100 101 102 101 101 101 101 102 103 103 104 104 104 104 104 104 104 104 104 103 103 102 102 102 102 102 100 99 99 99 99 100 100 100 100 99 99 99 99 99 98 98 98 98 98 99 99 99 99 99 99 99 99 99 98 97 96 96 95 94 93 93 92 92 91 91 90 90 90 89 89 88 88 88 88 87 86 86 85 84 82
92 97 100 102 103 103 103 103 103 103 102 103 104 104 102 103 103 104 104 104 103 103 103 103 103 104 104 104 104 104 104 104 103 103 103 102 102 102 102 102 101 100 99 99 100 100 100 100 100 100 100 100 100 100 100 99 99 99 99 99 99 99 100 100 100 101 101 101 100 100 99 98 97 96 96 95 95 94 94 94 94 94 93 93 93 93 92 91 91 90 90 90 89 89 88 88 87
84 89 93 97 100 102 103 105 105 104 104 105 106 105 104 104 106 106 106 107 106 106 105 105 105 104 104 104 104 104 104 103 103 103 102 102 102 102 101 100 99 99 100 100 101 100 100 100 100 100 100 101 101 100 100 100 99 99 99 100 100 101 101 101 102 102 102 101 100 100 99 99 98 98 98 97 97 96 96 96 96 97 97 96 96 96 96 95 95 94 93 92 92 92 91 91 90
78 82 85 89 91 94 96 99 101 100 101 103 103 102 101 102 104 106 106 106 105 105 105 104 104 104 103 103 103 103 102 102 102 102 101 101 100 99 99 98 99 100 100 100 100 100 100 100 101 101 101 101 101 101 101 100 100 100 100 101 101 102 102 102 102 102 101 101 100 100 99 99 99 99 99 99 99 99 99 99 99 99 99 99 99 99 99 99 98 98 97 96 96 95 95 94 93
76 78 80 83 85 86 87 91 93 93 94 97 97 96 94 95 98 99 100 100 100 100 101 101 101 101 101 100 100 100 100 100 100 100 99 99 98 98 99 99 99 99 99 99 99 100 100 101 101 102 102 102 102 102 102 102 102 102 102 102 103 103 103 102 102 101 101 100 100 100 100 100 100 101 101 101 101 101 102 102 102 102 102 103 103 103 102 102 102 102 101 100 99 99 98 97 97
75 76 78 81 82 82 83 86 88 89 90 91 91 89 86 88 90 91 92 93 94 95 95 96 96 97 97 97 97 98 98 98 98 98 98 98 98 98 98 98 98 98 99 99 100 100 101 102 102 102 102 102 103 103 103 103 103 103 103 104 104 103 103 102 101 101 100 100 100 100 101 101 102 102 103 103 104 104 104 104 104 105 106 106 106 106 105 105 105 105 104 104 102 102 101 100 99
72 73 75 79 80 80 80 81 83 85 87 88 87 84 82 84 86 86 87 88 89 90 91 92 93 94 94 95 95 96 96 96 96 96 97 97 97 97 97 97 98 98 99 100 100 101 101 102 103 103 104 104 104 104 104 104 105 105 105 104 103 102 102 102 101 100 100 100 101 101 102 103 104 104 105 105 106 106 107 107 108 108 108 108 108 108 108 107 107 106 106 106 105 104 103 103 101
70 71 73 76 77 76 75 75 77 81 83 84 82 80 79 82 83 83 84 85 86 88 89 90 91 91 92 93 93 93 94 94 95 95 95 95 96 96 97 97 98 98 99 99 100 101 102 103 104 105 105 105 105 106 106 106 106 105 105 103 103 102 101 101 101 101 101 101 102 103 104 104 105 106 106 107 108 109 109 110 110 110 110 110 110 110 109 108 108 108 107 107 107 106 106 105 104
68 69 69 72 74 73 71 70 73 78 80 81 79 77 79 81 81 82 83 83 84 85 87 88 88 89 90 91 91 92 92 93 93 94 94 95 96 97 97 97 98 98 99 100 102 103 104 105 106 106 107 107 107 107 107 106 106 105 104 103 102 101 100 100 100 101 102 103 104 105 106 106 107 108 108 109 110 110 111 111 111 111 111 111 111 110 110 109 109 109 109 108 108 108 108 107 107
67 68 68 69 72 72 70 69 72 76 78 78 77 77 78 80 81 81 82 82 83 84 85 86 87 88 89 89 90 91 92 92 93 94 95 96 96 96 97 97 98 100 101 103 104 105 106 106 107 107 108 108 108 107 107 106 105 104 103 102 102 101 101 101 102 103 104 105 105 106 108 109 109 110 110 110 111 111 111 111 111 111 111 111 111 111 111 111 111 111 110 110 110 109 109 109 108
67 68 69 69 71 71 69 70 72 75 77 76 76 77 78 79 81 81 81 82 82 83 85 86 87 87 88 89 90 91 92 93 94 94 95 95 96 96 97 99 100 102 103 105 106 107 107 108 108 108 108 107 107 107 106 105 104 103 102 102 102 102 103 103 104 105 105 106 107 107 108 109 111 112 112 112 111 111 111 112 112 112 112 112 112 112 112 111 111 112 112 112 111 111 111 111 110
67 68 69 69 70 70 69 71 73 76 77 76 76 78 78 79 81 81 81 82 82 83 84 85 86 87 88 89 90 91 92 93 93 94 95 96 97 98 99 101 103 104 105 106 107 108 109 109 109 108 108 107 106 105 105 104 104 103 103 103 103 104 105 106 106 107 107 107 108 108 108 109 110 111 113 113 112 112 112 112 112 113 113 113 113 113 113 113 112 113 113 112 112 112 112 112 112
67 68 70 70 70 71 71 73 75 77 77 77 77 79 78 79 80 81 82 82 82 84 84 85 86 87 88 89 90 91 92 93 94 95 97 98 99 101 102 104 105 106 107 108 109 109 109 109 108 108 107 106 104 104 104 105 105 105 105 105 106 106 106 107 108 108 108 108 108 108 108 108 108 110 112 113 114 115 115 114 114 113 114 114 114 114 113 113 113 113 113 113 113 113 113 113 113
68 69 70 71 71 72 73 75 76 77 78 78 79 79 79 80 81 81 81 82 83 84 84 85 86 87 88 89 91 92 93 95 96 98 99 101 102 103 105 106 107 108 108 109 109 109 109 108 108 107 106 105 105 105 106 106 106 107 107 107 107 107 108 108 108 108 108 108 109 109 109 109 108 109 110 111 113 115 116 117 116 115 115 114 114 115 114 114 113 113 113 113 113 113 113 113 114
69 68 69 73 73 72 74 75 76 77 78 79 80 80 79 79 80 80 80 82 83 83 84 85 87 89 90 92 93 95 96 98 99 101 102 103 104 106 107 107 108 108 109 109 108 108 108 107 106 106 106 106 107 107 108 108 108 108 109 109 109 109 109 109 109 109 109 109 110 110 111 111 111 110 110 111 111 112 114 116 117 116 115 115 115 115 115 115 114 114 114 114 114 114 113 113 114
69 67 69 73 74 72 73 75 76 77 77 77 79 81 81 79 77 78 81 82 84 85 87 88 91 92 94 95 96 98 99 101 102 103 104 105 106 107 108 108 108 108 109 108 107 107 106 106 107 107 107 108 108 109 109 109 109 109 109 109 109 109 110 110 110 110 111 111 111 112 113 113 113 113 112 112 111 110 111 113 114 115 115 115 115 114 114 114 115 115 114 114 114 114 114 113 113
68 69 70 73 75 74 74 75 77 78 78 77 78 81 83 81 78 79 83 85 86 88 91 93 94 95 97 98 99 101 102 104 105 105 105 106 107 108 108 107 107 107 107 107 106 106 106 107 108 108 109 109 109 109 109 109 110 110 110 110 110 111 111 111 112 112 112 113 113 113 114 114 114 114 114 113 112 111 110 111 111 112 112 113 113 113 113 113 113 113 113 112 112 113 113 113 113
70 72 72 73 76 76 76 77 78 79 79 78 79 83 85 85 82 81 84 86 89 92 94 96 97 98 99 100 102 103 104 105 106 106 106 107 107 107 107 106 106 106 106 106 106 107 107 108 109 109 110 110 110 110 110 110 111 111 112 112 112 112 112 113 113 113 114 114 114 114 114 114 114 114 114 114 113 112 110 109 109 109 109 109 109 110 110 110 110 110 110 110 110 110 111 111 111
73 74 74 75 76 77 78 79 79 81 80 80 82 85 86 87 85 84 85 88 91 95 97 98 99 100 101 102 103 105 106 106 106 106 106 106 106 106 106 105 105 106 107 107 108 108 108 109 109 110 110 110 111 111 111 112 112 113 113 113 113 114 114 114 114 114 114 114 114 114 114 114 114 114 114 113 113 112 110 108 107 106 105 105 105 105 105 106 107 108 109 109 109 110 110 110 111
75 76 76 77 78 79 80 81 82 83 83 83 86 88 88 89 87 86 89 91 94 97 98 99 100 102 103 103 104 105 106 106 105 105 105 105 105 105 106 106 106 107 108 108 108 109 109 109 110 110 111 112 112 112 113 114 114 115 115 115 115 115 115 115 115 115 114 114 114 113 113 113 113 113 113 112 112 111 109 107 104 103 102 101 101 101 103 104 106 108 108 109 109 110 110 111 112
77 78 79 79 80 81 82 83 84 86 86 86 88 90 92 92 89 89 92 96 98 99 100 101 102 103 103 104 104 105 105 104 104 104 104 105 105 105 106 107 107 107 108 108 109 110 110 110 111 112 112 113 113 114 114 115 116 116 116 116 116 116 116 115 115 115 114 113 113 113 112 112 111 111 110 109 108 108 107 105 103 101 100 99 99 100 101 103 105 107 108 109 109 109 110 111 112
78 79 80 81 82 83 84 85 87 88 88 88 89 92 93 93 92 93 96 97 99 100 101 101 101 102 102 102 103 103 103 103 103 104 104 105 105 106 106 107 107 108 108 109 110 111 111 112 112 113 114 114 115 115 115 116 117 117 116 116 116 115 115 115 114 113 113 112 112 111 110 110 109 108 106 105 104 104 104 104 103 102 101 100 100 100 101 102 103 105 108 109 109 109 110 112 113
77 78 79 80 82 83 84 85 87 88 89 89 90 92 93 92 92 94 96 96 96 98 99 99 99 99 100 100 101 102 102 102 103 103 104 105 106 106 107 108 109 109 110 110 111 112 112 113 114 114 115 115 116 116 116 117 117 116 116 115 115 114 114 113 113 112 111 110 109 108 107 106 105 104 103 103 103 103 103 103 103 104 103 102 101 101 101 101 102 103 106 108 109 110 110 112 113
74 76 77 78 80 82 82 83 85 86 87 87 87 89 90 90 90 91 93 93 93 94 95 96 97 97 98 99 100 101 102 102 103 104 105 106 107 108 108 109 110 110 111 111 112 113 114 114 115 115 116 116 116 116 116 116 116 115 115 114 113 113 112 112 111 110 109 107 106 105 103 103 102 102 102 102 102 102 102 102 102 103 104 104 103 103 102 102 102 102 104 106 108 109 110 111 113
72 74 76 76 78 80 80 81 82 84 85 84 84 85 87 87 88 89 91 93 92 92 93 94 95 96 97 99 101 102 102 103 104 105 106 107 108 109 109 110 111 111 112 112 113 114 114 115 115 116 116 116 116 116 115 115 115 114 113 112 112 111 110 109 108 106 105 104 103 102 102 101 101 101 101 101 101 101 102 102 102 102 103 104 104 104 104 103 103 103 103 104 107 109 110 111 112
71 73 74 75 77 78 79 80 81 83 85 85 84 84 84 86 88 89 91 92 93 93 93 94 95 96 98 100 101 102 103 104 104 105 106 107 108 109 110 111 111 112 112 113 114 114 115 115 116 116 116 116 115 115 115 114 113 113 112 110 109 108 107 106 105 104 103 102 102 102 101 101 101 101 101 101 101 101 101 101 102 102 103 104 104 104 104 104 104 103 103 104 105 107 108 109 110
70 71 72 74 76 77 79 80 80 82 84 85 85 84 84 85 88 90 92 94 94 94 94 94 96 97 99 100 102 103 103 104 105 106 107 108 109 110 111 112 113 113 113 114 114 115 115 115 115 115 115 115 114 114 113 113 112 110 109 108 106 105 104 104 103 103 103 102 102 102 101 101 101 100 100 100 100 100 101 101 102 102 103 103 104 104 105 104 104 104 103 103 104 105 106 107 107
70 71 72 74 76 78 79 80 81 83 84 84 85 85 84 85 87 89 93 95 96 95 95 96 97 98 99 101 103 104 104 105 106 107 108 109 110 111 112 113 113 113 114 114 114 114 114 114 114 114 114 114 113 113 112 111 109 108 106 105 105 104 103 103 103 103 102 102 102 101 101 101 100 100 100 100 100 100 101 101 101 102 102 103 103 103 104 104 104 103 103 102 103 104 104 104 104
70 70 72 74 76 78 79 79 81 83 84 84 85 85 85 86 87 89 93 96 97 97 97 97 98 99 100 102 104 104 104 105 107 108 108 109 110 111 111 112 113 113 113 113 113 113 113 114 114 114 113 113 111 110 109 108 107 106 105 104 104 103 102 102 102 102 102 102 101 101 101 101 101 101 101 101 101 101 101 101 101 102 102 102 102 102 103 103 103 103 102 101 101 101 100 99 99
69 70 71 73 75 77 78 79 80 82 84 84 85 85 84 86 88 89 92 95 96 97 98 98 99 100 101 103 104 105 104 105 106 107 108 108 109 109 109 110 111 111 111 112 112 112 112 112 112 112 111 110 108 107 107 106 105 104 104 103 103 102 102 101 101 101 102 102 102 101 102 102 102 102 101 101 101 101 101 101 101 101 100 100 100 100 101 101 101 101 101 100 98 96 96 95 94
67 69 70 72 74 76 77 78 79 81 82 83 85 84 81 84 89 90 91 93 94 95 96 97 97 98 100 102 104 104 103 104 105 105 106 107 107 108 108 108 108 109 109 110 110 110 110 109 109 108 108 106 105 104 104 104 103 103 102 102 102 102 101 101 101 101 102 102 102 102 102 102 102 102 102 101 101 101 101 100 100 99 98 98 98 98 99 99 98 97 97 96 95 93 92 91 91
Wind_Direction
248 247 246 247 250 251 251 251 251 251 251 252 253 252 253 253 251 251 253 254 255 256 256 257 258 261 265 267 268 268 269 270 271 271 270 271 272 272 271 273 274 275 276 278 282 283 283 283 282 281 280 280 281 282 284 286 288 289 289 290 290 290 289 289 289 289 289 289 289 289 290 290 290 290 290 290 290 290 289 288 285 282 277 272 270 267 264 262 260 259 257 256 255 254 252 250 248
244 245 245 245 247 250 251 252 252 252 252 253 254 255 255 255 252 251 253 254 254 255 256 257 259 262 266 267 268 268 268 269 270 270 270 271 273 273 273 274 275 276 277 279 282 282 281 280 280 279 279 279 280 283 286 288 289 290 290 290 290 290 289 290 290 290 290 290 290 289 289 289 289 289 289 289 289 289 289 287 285 281 276 273 271 269 267 264 261 260 258 257 256 255 253 251 250
241 243 244 244 245 248 250 252 253 253 253 254 255 256 257 256 255 252 253 254 254 255 256 257 260 264 266 267 268 269 269 269 269 269 270 271 272 274 275 276 276 276 277 278 280 280 279 278 278 278 278 280 282 285 287 288 290 291 291 291 290 289 289 289 288 288 288 288 288 288 288 288 288 288 288 289 289 289 288 287 284 280 276 274 272 271 269 266 264 261 260 259 257 255 253 251 250
241 242 243 244 245 246 248 251 253 254 254 255 256 257 258 257 256 254 253 254 255 256 257 258 262 265 267 268 268 268 269 269 268 269 271 272 273 275 277 278 278 277 277 277 278 278 278 278 279 280 281 283 285 286 287 289 291 291 290 289 288 287 287 286 286 286 286 287 286 287 287 287 287 288 288 288 288 288 288 286 283 280 277 275 273 272 270 268 266 263 261 259 257 254 252 251 250
240 243 244 245 246 247 248 250 252 253 254 255 256 258 259 258 257 256 254 254 256 258 259 262 265 267 268 269 268 268 269 269 269 269 271 273 275 277 278 279 279 278 277 277 278 279 280 280 281 282 283 284 284 285 287 290 291 290 289 287 286 286 285 285 285 286 286 286 286 287 287 287 288 289 289 289 289 288 286 285 282 280 278 276 274 272 271 269 267 265 262 259 256 254 252 251 251
236 240 244 246 248 248 249 250 252 253 254 256 257 259 259 259 258 257 257 256 258 260 263 265 267 269 269 269 268 268 269 269 270 270 272 274 275 276 276 277 279 278 278 279 280 280 281 282 282 282 282 282 283 286 288 290 290 288 287 285 284 284 284 285 286 286 286 286 287 287 288 288 289 290 290 290 288 287 285 283 282 280 279 278 275 273 272 269 267 265 263 260 258 255 254 253 252
235 237 240 244 247 249 250 250 252 254 256 257 259 259 260 259 259 259 259 259 261 263 266 267 269 269 269 269 269 269 270 271 271 272 274 275 275 275 274 276 278 279 279 279 279 280 281 282 281 281 281 282 284 287 288 288 287 286 285 284 284 284 285 285 286 286 287 287 287 288 288 289 290 290 290 289 287 285 284 283 282 281 280 279 277 275 273 270 268 266 264 262 259 257 256 255 253
237 237 239 241 244 247 250 252 254 256 258 260 261 260 260 261 260 260 260 260 262 263 265 266 268 268 269 269 270 270 270 271 272 273 275 276 276 275 274 275 276 278 278 278 279 279 280 281 281 281 281 283 285 286 286 286 286 286 285 284 284 285 285 286 286 286 287 288 288 289 289 290 290 290 289 287 286 285 284 284 283 282 281 280 279 277 274 271 268 267 265 264 261 257 256 255 255
239 240 242 243 245 248 251 254 257 259 260 261 262 261 261 261 261 260 260 260 261 262 263 264 265 265 266 267 267 268 269 270 272 274 276 277 276 276 274 274 274 276 277 278 279 279 280 282 282 281 281 282 284 285 286 286 286 286 286 285 285 285 285 286 286 287 288 288 289 289 289 290 290 289 287 287 286 286 285 285 284 283 282 280 279 277 274 272 269 267 265 265 263 259 256 254 254
240 241 243 244 247 250 253 256 258 259 261 262 262 262 262 261 261 260 260 261 260 261 262 263 265 265 266 266 266 267 268 270 273 275 276 276 276 275 275 274 274 275 276 278 280 280 280 281 281 280 280 282 284 285 286 286 286 285 285 285 285 285 285 286 287 288 289 289 289 289 290 290 289 288 287 287 287 286 286 285 284 282 281 280 278 277 275 273 270 268 266 264 264 262 259 256 254
240 241 242 244 246 249 252 255 258 259 261 261 261 261 261 261 261 261 261 261 261 261 262 263 265 266 267 267 267 268 269 271 273 274 275 275 276 276 276 276 276 276 277 278 280 280 279 279 278 279 280 282 284 286 286 286 285 284 284 284 284 285 286 287 288 289 289 289 289 290 290 290 288 287 287 286 286 286 285 284 283 282 281 280 279 277 275 273 271 269 266 264 263 262 261 259 256
241 242 243 245 247 249 251 253 255 257 259 260 261 262 262 262 262 262 262 262 261 262 263 265 266 267 268 269 269 270 270 271 272 272 274 275 276 277 277 277 277 277 277 278 279 278 277 277 278 279 281 283 285 285 285 284 284 283 284 284 285 286 287 288 288 289 289 289 290 290 290 289 289 288 287 286 286 285 285 284 283 282 281 280 279 277 274 272 270 269 267 265 262 261 260 259 258
243 244 244 246 247 248 250 251 252 254 256 259 261 262 263 263 263 263 263 263 263 264 265 267 267 268 268 269 269 269 270 270 270 272 274 275 277 277 277 277 276 277 277 277 277 277 277 278 279 281 283 284 284 284 283 283 283 284 285 286 287 288 288 288 288 289 289 290 290 290 289 289 289 288 287 286 286 285 285 284 284 282 281 279 277 275 273 271 270 268 266 265 263 260 259 258 258
244 245 246 247 247 248 248 249 250 251 251 254 258 260 260 262 263 264 264 264 265 266 266 266 266 266 267 267 267 268 268 269 270 272 273 274 275 276 275 275 275 276 277 278 279 279 279 280 281 282 282 283 282 282 283 284 285 285 286 287 288 288 288 288 289 289 290 290 290 289 289 289 289 288 287 287 286 286 285 285 284 282 281 278 276 274 273 271 270 268 266 265 263 261 259 257 257
249 248 247 248 247 248 248 248 249 248 247 250 255 257 259 261 263 264 264 265 266 267 266 266 265 265 266 267 267 268 268 269 270 271 272 273 274 275 275 275 276 277 278 279 279 279 279 279 280 281 281 282 283 284 285 286 286 287 287 287 287 288 288 289 289 289 289 289 289 289 290 289 289 288 288 287 286 286 285 284 283 282 280 278 276 274 273 271 270 268 266 265 263 261 259 257 256
254 254 251 248 247 248 248 249 250 249 247 248 251 254 257 259 260 261 262 264 265 266 265 265 265 265 266 266 267 268 268 269 270 271 272 272 274 274 274 275 276 277 277 278 278 278 278 279 280 281 282 283 284 285 286 286 286 286 287 287 287 288 289 289 288 288 288 289 289 290 290 290 289 289 289 288 287 286 285 284 283 281 280 278 277 275 273 271 270 269 267 265 264 262 260 257 255
254 258 256 251 248 248 248 250 251 251 249 248 249 251 254 255 257 258 260 261 262 263 263 263 263 264 264 265 266 267 267 268 269 270 271 272 273 273 274 275 276 276 277 277 277 278 278 279 280 282 283 284 284 285 285 286 286 286 286 287 287 288 288 288 287 288 288 289 290 290 290 290 290 289 289 288 287 287 286 285 283 282 280 279 278 276 274 272 271 269 267 266 264 262 261 258 255
248 256 260 258 253 249 249 250 251 251 250 249 249 251 253 254 255 256 257 259 260 260 260 261 261 262 263 264 265 265 266 267 268 269 270 271 271 272 273 274 275 276 277 277 278 279 280 281 281 282 283 284 284 284 285 285 285 286 286 286 287 287 287 287 287 288 289 289 290 290 290 290 290 289 289 289 288 287 286 285 284 283 281 280 279 277 276 274 272 270 269 266 264 263 261 259 256
243 249 257 260 259 256 253 251 251 251 251 251 251 252 254 256 256 257 258 259 260 260 260 261 261 262 263 264 265 266 267 267 268 269 270 271 272 273 274 275 276 277 278 279 279 280 281 282 282 283 283 283 284 284 285 285 285 285 286 286 287 287 287 288 288 289 289 290 290 290 290 290 290 290 289 289 288 287 286 286 285 284 283 281 280 278 277 275 273 271 269 267 265 263 261 259 256
240 244 249 255 260 261 259 255 252 251 251 252 253 253 255 257 257 258 259 260 261 261 262 262 263 264 264 265 266 267 268 269 270 271 272 273 274 275 276 276 277 278 279 280 280 281 281 282 282 282 283 283 284 284 284 285 285 285 286 287 287 288 288 288 289 289 289 289 290 290 290 290 290 289 289 288 288 287 286 286 285 284 284 283 281 280 278 276 274 272 269 267 265 264 262 260 257
239 241 245 248 254 258 260 260 257 254 252 252 254 254 255 256 257 258 260 261 262 262 262 263 264 264 265 266 267 268 269 270 271 273 274 275 276 276 277 278 278 279 279 280 280 281 281 281 282 282 282 283 283 284 284 285 285 286 287 287 288 288 288 288 288 289 289 289 290 290 289 289 289 288 288 288 287 287 287 286 286 285 284 283 282 280 279 277 275 273 270 268 266 264 262 260 258
239 240 243 245 248 252 256 260 261 259 256 254 255 255 256 257 258 259 259 260 261 262 263 263 264 265 266 266 267 269 270 271 272 274 275 276 277 277 278 278 279 279 279 280 280 281 281 282 282 283 283 283 284 284 285 285 286 287 287 287 288 288 288 288 288 289 289 289 289 289 289 289 288 287 287 287 286 286 286 286 286 285 285 284 283 281 279 277 275 273 270 269 267 265 263 260 258
241 241 242 244 246 248 251 256 261 262 262 260 258 257 258 259 260 260 260 261 262 263 264 264 265 266 267 268 268 269 270 272 273 274 275 276 277 278 278 279 279 279 280 281 281 282 282 283 283 283 283 284 284 285 285 286 286 287 287 287 287 287 288 288 288 288 289 289 289 289 288 288 288 287 287 286 286 285 285 284 284 284 283 283 283 282 281 279 276 274 271 268 266 265 264 262 259
243 243 243 244 246 247 248 252 257 260 262 263 262 262 262 262 262 262 262 262 263 264 265 265 266 267 268 269 270 270 271 272 273 275 276 277 277 278 278 279 280 280 281 281 282 282 282 283 283 283 284 284 285 285 285 286 286 286 286 287 287 287 288 288 288 288 288 288 288 288 288 287 287 287 286 286 286 285 284 284 283 283 282 281 281 281 280 279 278 276 273 270 267 264 263 262 261
244 244 244 245 247 248 248 250 253 256 259 261 262 264 265 265 265 265 265 265 265 266 266 267 268 269 270 270 271 272 272 273 274 275 276 277 278 278 279 280 280 281 281 282 282 282 282 282 283 283 283 284 284 284 285 285 285 286 286 286 287 287 287 287 287 287 287 287 287 287 287 287 286 286 285 285 285 285 284 284 284 283 282 282 281 280 279 279 278 276 274 272 269 266 263 261 260
243 245 245 246 248 250 251 250 251 253 255 257 259 261 263 265 266 266 267 267 268 268 269 269 269 270 271 272 272 273 274 275 276 277 277 278 279 279 280 280 281 281 281 281 281 282 282 282 282 282 282 283 283 283 284 284 285 285 285 286 286 286 286 287 287 287 287 286 286 286 286 286 285 285 285 284 284 284 284 284 284 283 283 282 281 281 280 279 277 276 275 273 271 268 266 263 260
244 245 246 247 249 251 252 253 253 253 254 256 258 259 261 263 265 266 267 268 268 269 270 270 270 271 272 272 273 274 275 276 277 278 278 279 279 280 280 280 281 281 281 281 281 281 281 281 281 281 282 282 283 283 283 284 284 284 285 285 285 286 286 286 286 286 286 285 285 285 285 285 285 284 284 284 284 284 284 284 283 283 282 282 281 280 279 279 278 276 275 274 272 270 267 265 262
245 246 247 248 249 251 252 253 255 255 256 257 258 259 261 262 264 265 266 267 268 269 269 270 270 271 272 273 274 275 276 277 277 278 278 279 279 280 280 280 280 280 280 280 280 280 281 281 281 282 282 283 283 283 283 283 284 284 284 285 285 285 285 285 285 285 285 285 285 285 284 284 284 284 283 284 284 284 284 283 283 282 282 281 281 280 279 278 277 276 275 274 273 271 269 267 264
246 246 247 248 249 251 252 254 255 256 258 258 259 260 262 263 264 265 266 267 267 268 269 270 271 272 273 274 274 275 276 277 277 278 278 279 279 279 280 280 280 280 280 280 280 281 281 282 282 282 283 283 283 283 283 283 284 284 284 285 285 285 285 285 285 285 285 285 285 284 284 283 283 283 283 283 283 283 283 283 283 282 282 281 281 280 279 278 277 276 275 274 273 272 270 269 267
248 248 249 249 250 252 253 254 256 257 259 260 260 261 262 264 265 265 266 266 267 268 269 270 271 272 273 274 275 275 276 277 277 277 278 278 278 279 279 279 279 279 280 280 281 281 282 282 282 282 282 282 282 283 283 283 284 284 284 284 284 284 285 285 285 285 284 284 284 283 283 283 283 283 283 283 283 283 283 282 282 282 282 281 281 280 280 279 278 277 275 274 273 272 271 269 268
250 250 250 251 251 253 254 255 256 258 259 260 261 262 263 264 265 266 266 267 268 269 269 270 271 272 273 274 274 275 275 276 276 276 277 278 278 278 279 279 279 279 280 280 281 281 282 282 282 282 282 282 282 283 283 283 283 283 283 284 284 284 284 284 284 284 283 283 283 282 282 282 282 282 282 283 283 282 282 282 282 282 282 281 281 281 280 280 279 278 277 275 274 273 272 270 268
251 251 252 252 252 253 255 256 257 258 259 260 261 262 263 264 265 266 267 267 268 269 270 271 271 272 273 273 274 274 275 275 276 276 277 277 278 278 278 278 279 279 280 280 281 281 281 281 281 281 281 282 282 283 283 283 283 284 284 284 284 284 284 284 283 283 282 282 282 282 282 282 282 282 282 282 282 282 282 282 282 282 282 282 281 281 280 280 279 279 278 277 275 274 273 271 270
253 253 253 254 254 254 254 256 259 260 260 260 261 262 263 264 265 266 267 268 268 269 270 271 271 272 272 273 273 274 274 275 275 276 276 276 277 277 277 278 279 279 280 280 280 280 280 280 280 281 281 282 282 283 283 283 284 284 284 284 284 284 284 283 283 282 282 282 281 281 281 281 281 282 282 282 282 282 282 282 282 282 281 281 281 280 280 279 279 278 278 277 276 274 273 272 270
253 254 254 254 254 255 255 256 258 259 260 261 261 262 263 264 265 266 267 268 268 269 270 270 271 271 272 273 273 273 274 274 275 275 275 276 276 277 278 279 279 280 280 280 280 280 280 280 281 281 282 282 282 283 283 284 284 284 284 284 284 284 284 283 283 282 282 281 281 281 281 281 281 281 281 282 282 282 282 282 281 281 281 280 280 280 279 279 278 278 277 276 276 274 273 272 270
254 254 255 256 256 255 256 257 258 259 260 261 262 263 264 264 265 266 266 267 268 269 270 270 271 271 272 272 273 273 274 274 275 275 276 276 277 278 278 279 279 279 279 279 279 279 280 280 281 281 282 282 283 283 284 284 284 284 284 284 284 284 283 283 282 282 282 281 281 281 281 281 281 281 281 281 281 281 281 281 281 280 280 280 280 279 279 278 278 277 277 276 275 275 274 272 271
256 256 256 257 259 258 257 258 259 260 261 262 264 264 264 265 266 266 267 268 268 269 270 270 271 271 272 272 273 273 274 275 275 276 277 277 278 278 278 278 278 278 279 279 279 280 280 281 281 282 283 283 284 284 284 284 284 284 284 284 283 283 282 282 282 281 281 281 281 281 281 281 281 281 281 281 280 280 280 280 280 280 280 279 279 279 279 278 278 277 276 275 275 274 273 272 271
257 257 256 257 259 260 259 259 259 261 262 264 265 265 265 266 267 267 267 268 268 269 269 270 271 271 272 273 273 274 275 275 276 276 277 277 277 277 277 278 278 278 279 279 279 280 281 281 282 283 283 284 284 284 284 284 284 284 284 283 283 282 282 282 281 281 281 281 281 281 281 282 281 281 281 281 280 280 280 280 280 279 279 279 279 278 278 278 277 277 276 275 274 273 272 272 271
257 258 258 258 259 261 261 261 261 262 262 263 264 265 265 266 267 267 268 268 269 269 270 271 271 272 273 273 274 274 275 275 275 276 276 276 277 277 277 278 278 278 279 279 280 281 281 282 283 283 284 284 284 284 284 284 284 283 283 283 283 282 282 282 281 281 281 281 281 281 281 282 282 282 282 281 281 280 280 280 280 279 279 279 278 278 277 277 276 276 275 274 274 273 272 271 270
257 258 259 259 260 260 261 261 261 262 262 263 264 264 264 265 267 268 268 269 270 270 271 271 272 272 273 273 274 274 274 275 275 275 276 276 277 277 278 278 278 279 279 280 281 282 282 283 283 284 284 284 284 284 284 284 283 283 283 282 282 282 282 282 282 281 281 281 281 281 281 281 281 282 282 282 281 281 280 280 279 279 279 278 278 277 277 276 276 275 274 274 273 273 272 271 271
259 260 260 260 261 261 261 261 261 262 263 264 264 265 265 266 267 268 269 270 270 271 271 272 272 272 273 273 273 274 274 274 275 275 276 276 277 277 278 278 279 280 281 281 282 282 283 283 283 284 284 284 283 283 283 283 283 283 283 282 282 282 282 282 282 282 282 282 282 282 281 281 281 281 282 282 282 282 282 281 280 280 279 278 278 277 276 276 275 275 274 274 273 272 272 271 270
260 260 261 261 262 262 262 262 263 264 264 265 265 266 266 267 267 268 269 270 270 271 271 272 272 272 272 273 273 274 274 275 275 276 276 277 278 278 279 280 280 281 282 282 282 283 283 283 283 283 283 283 283 283 283 283 283 283 283 284 284 284 284 283 283 283 283 283 283 283 282 282 281 280 280 281 281 282 282 282 281 280 280 279 279 278 278 277 276 275 274 273 272 272 271 270 269
260 261 262 263 262 262 263 264 264 265 266 266 267 267 267 267 269 270 270 270 270 271 271 272 272 272 272 273 274 274 275 275 276 277 277 278 279 280 280 281 282 282 282 283 283 283 283 283 283 283 283 283 283 283 283 284 284 284 285 285 285 285 285 285 285 285 284 284 284 284 284 283 282 281 280 280 279 280 280 280 280 280 280 279 279 278 278 278 277 276 275 274 273 272 271 269 269
262 262 263 264 264 264 264 265 265 266 266 267 268 269 268 267 268 269 270 270 270 271 271 271 272 272 273 274 275 275 276 276 277 278 279 280 280 281 281 282 282 283 283 283 283 283 283 283 283 283 283 283 283 284 284 285 285 285 286 286 286 286 286 286 286 286 286 285 285 285 285 284 284 283 282 281 280 279 279 279 279 280 279 279 279 278 277 277 276 276 275 274 273 272 271 270 269
263 263 263 264 266 266 265 266 266 266 267 267 268 269 269 268 267 268 269 270 271 272 272 272 272 273 274 275 276 276 277 278 278 279 280 281 281 282 282 282 282 283 282 283 282 282 282 283 283 283 284 284 284 285 285 286 286 286 286 286 287 287 287 287 287 287 287 286 286 286 285 285 284 284 283 282 281 280 279 279 278 278 278 278 278 278 277 277 276 275 274 273 273 272 271 270 269
263 264 264 265 266 267 267 267 267 268 268 268 268 268 269 270 269 268 269 271 272 272 272 273 274 275 276 277 277 278 279 279 280 280 281 281 282 282 282 282 282 282 282 282 282 283 283 283 284 284 285 285 286 286 286 287 287 287 287 287 287 287 288 288 287 287 287 287 286 286 285 285 285 284 283 283 282 281 280 279 278 278 278 277 277 277 277 277 276 275 274 273 272 271 271 270 269
264 265 265 266 267 267 268 269 269 270 270 270 270 270 270 271 272 271 271 272 272 273 273 274 275 277 277 278 279 279 280 280 281 281 281 281 281 281 281 282 282 282 282 282 283 283 283 284 284 285 286 286 286 287 287 287 287 288 288 288 288 288 288 288 288 288 287 287 286 286 286 285 285 284 284 283 283 282 281 280 279 279 278 278 277 277 277 276 276 275 274 273 273 272 271 270 269
266 266 267 267 268 268 269 269 270 271 271 271 271 272 273 273 274 274 274 274 273 274 275 277 278 278 279 279 280 280 280 280 281 281 281 281 281 281 281 282 282 282 283 283 284 284 284 285 285 286 286 286 287 287 288 288 288 288 289 289 289 289 289 288 288 288 287 287 287 286 286 285 285 284 284 283 283 283 282 281 280 279 279 278 277 277 276 276 275 274 274 273 272 272 271 270 269
267 267 268 268 269 269 270 270 271 271 272 272 272 273 274 275 275 275 275 275 275 276 277 278 278 279 279 279 279 280 280 280 280 280 281 281 281 281 282 282 282 283 283 284 284 285 285 285 286 286 287 287 287 288 288 289 289 289 289 289 289 289 289 288 288 288 287 287 287 286 286 285 285 284 284 283 283 283 283 282 281 280 279 279 278 277 276 276 275 275 275 274 273 272 271 271 270
268 268 269 269 270 270 270 271 272 272 273 273 273 273 274 275 276 276 275 276 276 277 278 278 278 278 279 279 279 279 279 280 280 280 281 281 281 282 282 282 283 283 283 284 285 285 286 286 287 287 287 288 288 289 289 289 289 289 289 289 289 289 288 288 288 288 287 287 287 286 286 285 285 285 284 284 284 284 283 283 283 282 281 280 279 278 277 276 276 276 276 275 274 273 273 272 271
269 269 270 270 270 271 271 271 272 272 273 273 273 274 275 275 276 276 275 275 276 276 277 277 277 278 278 278 279 279 279 280 280 281 281 281 282 282 283 283 284 284 284 285 285 286 286 287 287 288 288 288 289 289 289 289 289 289 289 289 289 289 289 288 288 288 287 287 286 286 286 285 285 285 285 284 284 284 284 284 284 283 282 281 280 279 277 276 276 275 276 276 275 274 274 273 272
269 270 270 270 271 271 271 271 272 272 272 272 273 274 275 275 275 275 275 275 275 275 276 276 277 277 278 278 279 279 280 280 280 281 281 282 282 283 283 284 285 285 286 286 287 287 287 288 288 288 289 289 289 289 289 289 289 289 289 289 289 289 289 289 288 288 287 287 287 286 286 286 285 285 285 285 285 284 284 284 284 283 283 282 281 280 279 278 277 276 275 275 275 274 274 273 272
269 269 270 270 270 271 272 272 272 273 273 273 273 273 274 275 275 275 275 275 275 275 275 276 276 277 278 278 279 279 280 281 281 282 282 283 283 284 284 285 285 286 287 287 287 288 288 288 289 289 289 289 290 290 290 290 290 290 290 290 290 290 289 289 288 288 288 287 287 287 287 286 286 286 286 286 285 285 285 285 284 284 283 283 282 282 281 280 279 277 276 276 275 274 273 272 272
268 269 269 270 270 271 272 271 271 272 273 273 273 273 273 274 275 275 275 275 276 276 276 276 277 277 278 279 279 280 281 281 282 283 283 284 284 285 285 286 286 287 287 288 288 289 289 289 290 290 290 290 290 290 290 290 291 291 291 290 290 290 290 289 289 289 288 288 288 288 287 287 287 287 287 287 286 286 286 286 285 285 285 284 284 283 282 281 280 279 278 277 276 275 274 273 272
269 270 270 271 271 272 272 272 272 272 273 274 274 274 274 275 275 276 277 277 277 278 278 278 279 279 279 280 280 281 282 282 283 283 284 285 285 286 286 287 288 288 288 289 289 289 290 290 290 290 291 291 291 291 291 291 291 291 291 291 291 290 290 290 290 290 289 289 289 288 288 288 288 288 288 287 287 287 287 286 286 286 285 285 285 284 283 282 281 280 279 278 277 276 275 274 274
270 271 271 271 272 272 272 273 273 273 274 274 275 276 276 276 277 277 278 278 279 279 280 280 280 280 281 281 281 282 283 283 284 284 285 286 286 287 287 288 288 289 289 289 290 290 290 290 291 291 291 291 291 292 292 292 292 292 292 291 291 291 291 290 290 290 290 289 289 289 290 290 289 289 289 289 288 288 288 287 287 287 286 286 285 285 284 283 282 281 280 279 278 278 277 275 274
271 271 271 271 272 272 273 273 273 274 275 275 276 276 277 277 277 277 278 279 280 280 280 280 281 281 282 282 282 283 284 284 285 285 286 286 287 287 287 288 288 289 289 290 290 291 291 291 291 291 291 291 292 292 292 292 292 292 292 292 291 291 291 291 291 291 291 291 291 291 291 291 291 290 290 290 289 289 288 288 288 287 287 286 286 285 284 283 283 282 281 280 279 278 277 276 274
271 271 271 272 272 272 273 274 274 274 275 276 276 277 277 278 278 277 277 278 279 280 281 281 282 282 283 283 284 284 285 285 286 286 286 287 287 287 288 288 289 289 290 290 290 291 291 291 291 291 291 292 292 292 292 292 292 292 292 292 292 292 292 292 292 292 292 292 292 292 292 292 291 291 291 290 290 290 289 289 288 288 287 287 286 285 284 283 283 283 282 282 280 279 278 277 275
272 273 273 273 273 274 274 275 275 276 277 277 277 278 279 280 279 279 279 279 279 280 281 281 283 283 284 284 284 285 286 286 286 286 287 287 287 287 288 288 289 289 290 290 290 290 290 291 291 291 292 292 292 292 292 292 292 292 292 292 292 292 292 292 292 292 292 292 292 292 292 291 291 291 291 291 290 290 290 289 289 288 287 287 286 285 284 284 284 284 283 283 282 281 279 278 276